Hourly Data Report for June 24, 2017

WESTERN HEAD
NOVA SCOTIA

43°59'24.070" N
64°39'51.008" W
10.10 m
8206240
71411
WWE

Download Data

Hourly Data (June 2017)
Hourly Data Report for June 24, 2017
TIME
LST
Temp Definition
°C
Dew Point Definition
°C
Rel Hum Definition
%
Precip. Amount Definition
mm

Wind Dir Definition
10's deg

Wind Spd Definition
km/h
Visibility Definition
km
Stn Press Definition
kPa
Hmdx Definition


Wind Chill Definition


Weather Definition


00:00 12.5 12.5 100 0.0 24 17   100.70     LegendNANA
01:00 13.3 13.3 100 0.0 23 25   100.65     LegendNANA
02:00 12.3 12.3 100 0.6 24 20   100.52     LegendNANA
03:00 12.7 12.7 100 1.3 19 28   100.34     LegendNANA
04:00 12.5 12.5 100 0.0 22 28   100.31     LegendNANA
05:00 12.3 12.3 100 0.0 21 33   100.29     LegendNANA
06:00 10.9 10.9 100 0.0 20 30   100.25     LegendNANA
07:00 10.5 10.5 100 0.0 20 30   100.22     LegendNANA
08:00 11.1 11.1 100 0.0 19 30   100.17     LegendNANA
09:00 10.9 10.9 100 0.0 19 28   100.12     LegendNANA
10:00 10.6 10.6 100 0.0 20 27   100.07     LegendNANA
11:00 11.1 11.1 100 0.0 20 27   100.06     LegendNANA
12:00 11.0 11.0 100 0.0 21 27   100.09     LegendNANA
13:00 10.3 10.3 100 0.0 20 25   100.07     LegendNANA
14:00 10.6 10.6 100 0.0 20 26   100.12     LegendNANA
15:00 9.9 9.9 100 0.0 21 29   100.16     LegendNANA
16:00 9.5 9.5 100 0.3 20 23   100.16     LegendNANA
17:00 8.9 8.9 100 0.0 21 26   100.23     LegendNANA
18:00 10.4 10.4 100 3.3 22 20   100.20     LegendNANA
19:00 9.6 9.6 100 1.0 22 12   100.21     LegendNANA
20:00 10.6 10.6 100 0.0 24 12   100.25     LegendNANA
21:00 9.3 9.3 100 0.0 23 9   100.32     LegendNANA
22:00 8.8 8.8 100 0.0 24 8   100.36     LegendNANA
23:00 9.2 9.2 100 0.0 24 9   100.39     LegendNANA

Notes on Data Quality.

Legend

  • E = Estimated
  • M = Missing
  • NA = Not Available*
  • [empty] = Indicates an unobserved value
Date modified: